Location: *
(35.8942°N, 23.3025°E)
Time: 22:28:28
(UTC+00:00)

Tiangong - Pass Details

Date: 08 December 2021
Orbit: 383 x 386 km, 41.5° (Epoch: 23 January)

Event Time Altitude Azimuth Distance (km) Brightness Sun altitude
Rises 17:10:47 0° 255° (WSW) 2,270 6.4 -23.3°
Reaches altitude 10° 17:12:53 10° 259° (WSW) 1,415 5.0 -23.7°
Enters shadow 17:14:52 33° 273° (W) 671 2.8 -24.1°
